Location: Banios
(43.0451°N, 0.2335°E)
Time: 12:32:53
(UTC+00:00)

Lacrosse 4 Rocket - Pass Details

Date: 25 January 2021
Orbit: 536 x 621 km, 68.0° (Epoch: 25 February)

Event Time Altitude Azimuth Distance (km) Brightness Sun altitude
Exits shadow 05:29:18 27° 211° (SSW) 1,111 2.6 -20.3°
Maximum altitude 05:31:31 85° 298° (WNW) 590 1.3 -19.9°
Drops below altitude 10° 05:35:53 10° 28° (NNE) 1,935 4.3 -19.1°
Sets 05:38:10 0° 29° (NNE) 2,855 5.2 -18.7°
